K4AVM-13 Weather Reports


Display with metric or nautical units.
time (UTC)temp
F
wind
direction
speed
MPH
gust
MPH
rain 1hr
in
rain 24hr
in
rain mn
in
humidity
%
barometer
mb
20260902232608 82 1 0.0 1.0 0.00 0.02 0.02 90 1018.5
20260902232102 82 1 0.0 0.0 0.00 0.02 0.02 89 1018.8
20260902231556 82 351 0.0 1.0 0.00 0.02 0.02 90 1018.8
20260902231050 82 154 1.0 1.0 0.00 0.02 0.02 90 1018.4
20260902230545 82 294 1.0 1.0 0.00 0.02 0.02 91 1018.4
20260902230044 82 103 0.0 3.0 0.00 0.02 0.02 91 1018.4
20260902225540 82 132 0.0 2.0 0.00 0.02 0.02 92 1018.5
20260902225039 82 149 0.0 0.0 0.00 0.02 0.02 92 1018.7
20260902224538 82 158 1.0 2.0 0.00 0.02 0.02 92 1018.7
20260902224034 82 229 0.0 0.0 0.00 0.02 0.02 91 1018.8
20260902223530 82 219 0.0 1.0 0.00 0.02 0.02 91 1018.9
20260902223029 83 170 1.0 1.0 0.00 0.02 0.02 91 1019.1
20260902222528 83 243 0.0 1.0 0.00 0.02 0.02 90 1019.2
20260902222027 83 231 0.0 0.0 0.00 0.02 0.02 89 1018.4
20260902221521 83 212 0.0 0.0 0.00 0.02 0.02 88 1018.7
20260902221016 83 166 0.0 3.0 0.00 0.02 0.02 87 1018.6
20260902220512 84 235 1.0 4.0 0.00 0.02 0.02 87 1018.9
20260902220006 84 244 1.0 4.0 0.00 0.02 0.02 87 1018.8
20260902215502 85 148 1.0 3.0 0.00 0.02 0.02 86 1018.9
20260902214958 86 127 0.0 1.0 0.00 0.02 0.02 83 1018.8
20260902214457 86 250 0.0 1.0 0.00 0.02 0.02 83 1018.5
20260902213955 87 143 0.0 3.0 0.00 0.02 0.02 81 1018.7
20260902213452 86 216 0.0 0.0 0.00 0.02 0.02 82 1018.5
20260902212950 84 284 1.0 3.0 0.00 0.02 0.02 83 1018.7
20260902212447 84 153 0.0 1.0 0.00 0.02 0.02 86 1019.0
20260902211943 83 137 0.0 2.0 0.00 0.02 0.02 87 1019.1
20260902211439 82 238 0.0 0.0 0.00 0.02 0.02 87 1019.2
20260902210933 81 223 0.0 1.0 0.00 0.02 0.02 87 1018.9
20260902210428 80 152 2.0 2.0 0.07 0.02 0.02 89 1018.8
20260902205921 80 228 0.0 0.0 0.12 0.02 0.02 88 1018.7
20260902205415 81 227 0.0 1.0 0.05 0.01 0.01 82 1019.2
20260902204906 81 214 0.0 0.0 0.00 0.00 0.00 78 1019.2
20260902204405 81 322 2.0 4.0 0.00 0.00 0.00 78 1019.5
20260902203901 82 29 4.0 10.0 0.00 0.00 0.00 77 1019.1
20260902203355 85 21 6.0 10.0 0.00 0.00 0.00 70 1018.8
20260902202850 87 91 4.0 8.0 0.00 0.00 0.00 73 1019.0
20260902202346 91 8 0.0 3.0 0.00 0.00 0.00 71 1018.9
20260902201843 93 230 2.0 6.0 0.00 0.00 0.00 65 1019.0
20260902201342 93 114 1.0 3.0 0.00 0.00 0.00 64 1018.5
20260902200837 95 272 0.0 2.0 0.00 0.00 0.00 61 1018.4
20260902200332 96 13 3.0 6.0 0.00 0.00 0.00 56 1018.5
20260902195828 96 155 0.0 3.0 0.00 0.00 0.00 57 1018.5
20260902195327 96 27 1.0 2.0 0.00 0.00 0.00 56 1018.4
20260902194822 95 245 0.0 1.0 0.00 0.00 0.00 58 1018.4
20260902194316 96 338 2.0 3.0 0.00 0.00 0.00 56 1018.3
20260902193812 95 237 0.0 0.0 0.00 0.00 0.00 62 1018.1
20260902193308 96 160 2.0 3.0 0.00 0.00 0.00 55 1018.2
20260902192807 96 179 0.0 4.0 0.00 0.00 0.00 57 1018.2
20260902192307 96 354 1.0 3.0 0.00 0.00 0.00 56 1018.4
20260902191805 96 228 0.0 2.0 0.00 0.00 0.00 58 1018.4
20260902191300 96 228 0.0 0.0 0.00 0.00 0.00 56 1018.5
20260902190755 95 246 0.0 1.0 0.00 0.00 0.00 56 1018.6
20260902190255 95 312 0.0 2.0 0.00 0.00 0.00 57 1018.5
20260902185751 97 2 2.0 7.0 0.00 0.00 0.00 56 1018.6
20260902185246 97 192 1.0 3.0 0.00 0.00 0.00 56 1018.7
20260902184743 97 45 2.0 3.0 0.00 0.00 0.00 55 1018.7
20260902184242 97 59 3.0 3.0 0.00 0.00 0.00 56 1018.7
20260902183738 97 137 1.0 2.0 0.00 0.00 0.00 57 1018.8
20260902183234 96 244 0.0 3.0 0.00 0.00 0.00 56 1018.8
20260902182730 96 228 0.0 2.0 0.00 0.00 0.00 58 1018.7
20260902182227 95 36 3.0 6.0 0.00 0.00 0.00 57 1018.8
20260902181723 95 239 2.0 3.0 0.00 0.00 0.00 59 1018.9
20260902181222 95 10 4.0 7.0 0.00 0.00 0.00 58 1018.9
20260902180717 95 352 2.0 2.0 0.00 0.00 0.00 57 1019.0
20260902180213 94 172 0.0 3.0 0.00 0.00 0.00 59 1019.1
20260902175708 94 295 0.0 1.0 0.00 0.00 0.00 59 1019.0
20260902175204 93 249 0.0 3.0 0.00 0.00 0.00 61 1019.0
20260902174659 96 352 1.0 3.0 0.00 0.00 0.00 59 1019.1
20260902174155 95 170 1.0 2.0 0.00 0.00 0.00 59 1018.9
20260902173650 96 110 1.0 2.0 0.00 0.00 0.00 58 1019.1
20260902173145 96 222 0.0 1.0 0.00 0.00 0.00 57 1019.0
20260902172639 96 223 0.0 1.0 0.00 0.00 0.00 57 1019.2
20260902172138 97 10 3.0 4.0 0.00 0.00 0.00 54 1019.0
20260902171634 98 198 0.0 2.0 0.00 0.00 0.00 57 1019.2
20260902171130 96 285 1.0 2.0 0.00 0.00 0.00 56 1019.0
20260902170625 96 308 2.0 7.0 0.00 0.00 0.00 57 1019.0
20260902170121 96 174 0.0 3.0 0.00 0.00 0.00 56 1019.0
20260902165620 96 258 1.0 2.0 0.00 0.00 0.00 57 1019.1
20260902165115 96 165 1.0 4.0 0.00 0.00 0.00 58 1019.2
20260902164610 96 304 2.0 2.0 0.00 0.00 0.00 56 1019.1
20260902164109 95 38 1.0 2.0 0.00 0.00 0.00 56 1019.1
20260902163605 94 301 1.0 2.0 0.00 0.00 0.00 59 1019.1
20260902163103 94 359 3.0 4.0 0.00 0.00 0.00 57 1019.2
20260902162603 95 245 2.0 2.0 0.00 0.00 0.00 60 1019.2
20260902162058 94 27 1.0 3.0 0.00 0.00 0.00 59 1019.2
20260902161552 94 140 1.0 6.0 0.00 0.00 0.00 60 1019.4
20260902161048 94 279 2.0 4.0 0.00 0.00 0.00 61 1019.1
20260902160544 95 349 1.0 4.0 0.00 0.00 0.00 59 1019.3
20260902160039 95 229 1.0 2.0 0.00 0.00 0.00 59 1019.2
20260902155532 94 245 2.0 4.0 0.00 0.00 0.00 61 1019.4
20260902155031 94 222 1.0 1.0 0.00 0.00 0.00 59 1019.6
20260902154527 93 15 1.0 4.0 0.00 0.00 0.00 63 1019.4
20260902154021 94 24 1.0 1.0 0.00 0.00 0.00 61 1019.4
20260902153520 94 235 0.0 2.0 0.00 0.00 0.00 61 1019.4
20260902153015 94 252 1.0 4.0 0.00 0.00 0.00 63 1019.3
20260902152512 92 235 0.0 1.0 0.00 0.00 0.00 63 1019.4
20260902152007 93 0 0.0 3.0 0.00 0.00 0.00 65 1019.3
20260902151503 92 251 1.0 3.0 0.00 0.00 0.00 66 1019.6
20260902150956 92 257 2.0 3.0 0.00 0.00 0.00 63 1019.5
20260902150452 92 237 1.0 2.0 0.00 0.00 0.00 65 1019.5
20260902145952 91 350 2.0 6.0 0.00 0.00 0.00 65 1019.4
20260902145447 93 269 0.0 2.0 0.00 0.00 0.00 64 1019.4
20260902144941 91 273 1.0 2.0 0.00 0.00 0.00 67 1019.6
20260902144437 92 307 3.0 7.0 0.00 0.00 0.00 66 1019.6
20260902143932 91 238 2.0 3.0 0.00 0.00 0.00 67 1019.6
20260902143427 90 239 0.0 2.0 0.00 0.00 0.00 69 1019.6
20260902142922 90 10 3.0 4.0 0.00 0.00 0.00 68 1019.6
20260902142419 90 332 1.0 4.0 0.00 0.00 0.00 68 1019.7
20260902141914 89 342 1.0 2.0 0.00 0.00 0.00 68 1019.5
20260902141409 89 120 2.0 2.0 0.00 0.00 0.00 69 1019.5
20260902140908 89 282 1.0 2.0 0.00 0.00 0.00 69 1019.4
20260902140404 88 357 0.0 3.0 0.00 0.00 0.00 72 1019.5
20260902135858 88 220 0.0 3.0 0.00 0.00 0.00 71 1019.2
20260902135354 88 224 0.0 2.0 0.00 0.00 0.00 75 1019.3
20260902134853 87 172 1.0 2.0 0.00 0.00 0.00 74 1019.2
20260902134349 87 352 3.0 4.0 0.00 0.00 0.00 73 1019.1
20260902133843 86 17 0.0 1.0 0.00 0.00 0.00 74 1019.1
20260902133343 86 10 2.0 2.0 0.00 0.00 0.00 75 1019.1
20260902132838 85 33 1.0 3.0 0.00 0.00 0.00 76 1018.9
20260902132333 86 37 3.0 3.0 0.00 0.00 0.00 75 1019.1
20260902131829 86 351 3.0 4.0 0.00 0.00 0.00 75 1019.0
20260902131326 85 217 0.0 0.0 0.00 0.00 0.00 75 1019.2
20260902130825 85 198 1.0 2.0 0.00 0.00 0.00 75 1019.0
20260902130321 85 16 0.0 1.0 0.00 0.00 0.00 75 1019.1
20260902125816 84 184 1.0 3.0 0.00 0.00 0.00 76 1019.1
20260902125312 86 280 1.0 2.0 0.00 0.00 0.00 75 1019.0
20260902124808 85 354 1.0 1.0 0.00 0.00 0.00 75 1019.0
20260902124303 84 1 0.0 1.0 0.00 0.00 0.00 76 1019.1
20260902123758 84 12 1.0 4.0 0.00 0.00 0.00 77 1019.1
20260902123254 83 355 2.0 4.0 0.00 0.00 0.00 78 1019.0
20260902122752 83 348 1.0 3.0 0.00 0.00 0.00 78 1018.9
20260902122249 83 233 0.0 2.0 0.00 0.00 0.00 78 1019.0
20260902121743 82 336 3.0 3.0 0.00 0.00 0.00 78 1018.8
20260902121238 82 329 0.0 3.0 0.00 0.00 0.00 79 1019.0
20260902120733 81 346 3.0 7.0 0.00 0.00 0.00 79 1018.8
20260902120229 81 318 2.0 2.0 0.00 0.00 0.00 80 1018.9
20260902115724 80 359 1.0 2.0 0.00 0.00 0.00 82 1018.9
20260902115220 79 257 0.0 2.0 0.00 0.00 0.00 84 1019.0
20260902114716 78 3 1.0 1.0 0.00 0.00 0.00 85 1018.9
20260902114211 78 230 0.0 0.0 0.00 0.00 0.00 86 1018.9
20260902113706 78 232 0.0 0.0 0.00 0.00 0.00 87 1018.8
20260902113201 78 232 0.0 0.0 0.00 0.00 0.00 86 1018.9
20260902112701 77 230 0.0 0.0 0.00 0.00 0.00 86 1018.9
20260902112159 77 232 0.0 0.0 0.00 0.00 0.00 87 1018.8
20260902111653 77 255 0.0 0.0 0.00 0.00 0.00 86 1018.9
20260902111149 77 260 0.0 1.0 0.00 0.00 0.00 86 1018.8
20260902110645 77 255 0.0 0.0 0.00 0.00 0.00 86 1018.9
20260902110141 78 243 0.0 0.0 0.00 0.00 0.00 86 1018.9
20260902105640 78 244 0.0 0.0 0.00 0.00 0.00 86 1018.9
20260902105136 78 251 0.0 0.0 0.00 0.00 0.00 85 1018.8
20260902104631 78 254 0.0 0.0 0.00 0.00 0.00 85 1018.7
20260902104126 78 258 0.0 1.0 0.00 0.00 0.00 84 1018.7
20260902103625 78 263 0.0 0.0 0.00 0.00 0.00 84 1018.7
20260902103121 78 264 0.0 0.0 0.00 0.00 0.00 84 1018.6
20260902102617 78 256 0.0 0.0 0.00 0.00 0.00 85 1018.5
20260902102114 78 239 0.0 0.0 0.00 0.00 0.00 84 1018.5
20260902101609 78 248 0.0 0.0 0.00 0.00 0.00 83 1018.4
20260902101109 79 247 0.0 0.0 0.00 0.00 0.00 83 1018.2
20260902100603 79 247 0.0 0.0 0.00 0.00 0.00 82 1018.3
20260902100058 79 239 0.0 0.0 0.00 0.00 0.00 82 1018.4
20260902095557 80 239 0.0 0.0 0.00 0.00 0.00 82 1018.1
20260902095056 80 247 0.0 0.0 0.00 0.00 0.00 80 1018.3
20260902094546 80 250 0.0 0.0 0.00 0.00 0.00 80 1018.2
20260902094042 80 219 0.0 0.0 0.00 0.00 0.00 79 1018.2
20260902093536 80 307 0.0 0.0 0.00 0.00 0.00 79 1018.3
20260902093031 80 250 0.0 0.0 0.00 0.00 0.00 79 1018.1
20260902092526 81 242 0.0 0.0 0.00 0.00 0.00 78 1018.1
20260902092021 81 239 0.0 0.0 0.00 0.00 0.00 77 1018.0
20260902091516 81 7 2.0 2.0 0.00 0.00 0.00 77 1018.0
20260902091012 81 326 0.0 1.0 0.00 0.00 0.00 77 1018.1
20260902090508 81 357 3.0 3.0 0.00 0.00 0.00 76 1018.1
20260902090007 81 11 2.0 2.0 0.00 0.00 0.00 77 1018.0
20260902085502 81 31 1.0 1.0 0.00 0.00 0.00 76 1018.0
20260902084956 81 207 2.0 3.0 0.00 0.00 0.00 77 1018.1
20260902084453 81 340 3.0 3.0 0.00 0.00 0.00 77 1018.2
20260902083949 80 247 1.0 1.0 0.00 0.00 0.00 78 1018.2
20260902083448 80 346 2.0 3.0 0.00 0.00 0.00 80 1017.9
20260902082943 78 246 0.0 0.0 0.00 0.00 0.00 86 1018.1
20260902082439 78 250 0.0 2.0 0.00 0.00 0.00 86 1018.0
20260902081935 78 268 0.0 1.0 0.00 0.00 0.00 87 1017.9
20260902081431 77 331 0.0 2.0 0.00 0.00 0.00 89 1018.1
20260902080926 77 279 1.0 1.0 0.00 0.00 0.00 90 1017.8
20260902080422 76 273 0.0 3.0 0.00 0.00 0.00 92 1017.8
20260902075922 75 1 0.0 1.0 0.00 0.00 0.00 94 1017.8
20260902075418 75 303 0.0 0.0 0.00 0.00 0.00 95 1017.9
20260902074913 75 242 0.0 0.0 0.00 0.00 0.00 96 1018.0
20260902074409 75 250 0.0 0.0 0.00 0.00 0.00 96 1017.9
20260902073903 75 250 0.0 0.0 0.00 0.00 0.00 96 1017.9
20260902073400 75 230 0.0 0.0 0.00 0.00 0.00 96 1018.0
20260902072855 75 224 0.0 0.0 0.00 0.00 0.00 96 1017.9
20260902072351 75 224 0.0 0.0 0.00 0.00 0.00 96 1018.0
20260902071848 75 224 0.0 0.0 0.00 0.00 0.00 96 1017.9
20260902071347 75 227 0.0 0.0 0.00 0.00 0.00 96 1017.9
20260902070843 75 239 0.0 0.0 0.00 0.00 0.00 96 1018.0
20260902070338 75 239 0.0 0.0 0.00 0.00 0.00 96 1018.0
20260902065836 75 239 0.0 0.0 0.00 0.00 0.00 96 1018.0
20260902065332 75 258 0.0 0.0 0.00 0.00 0.00 96 1018.0
20260902064827 75 258 0.0 0.0 0.00 0.00 0.00 96 1018.0
20260902064323 75 258 0.0 0.0 0.00 0.00 0.00 96 1017.9
20260902063818 75 258 0.0 0.0 0.00 0.00 0.00 96 1017.7
20260902063313 75 258 0.0 0.0 0.00 0.00 0.00 96 1017.9
20260902062807 75 258 0.0 0.0 0.00 0.00 0.00 96 1017.8
20260902062305 75 239 0.0 0.0 0.00 0.00 0.00 96 1017.6
20260902061801 75 250 0.0 0.0 0.00 0.00 0.00 96 1017.9
20260902061256 75 250 0.0 0.0 0.00 0.00 0.00 96 1017.9
20260902060754 76 250 0.0 0.0 0.00 0.00 0.00 95 1017.8
20260902060249 76 242 0.0 0.0 0.00 0.00 0.00 95 1017.6
20260902055744 76 240 0.0 0.0 0.00 0.00 0.00 95 1017.7
20260902055240 76 240 0.0 0.0 0.00 0.00 0.00 95 1017.8
20260902054735 76 241 0.0 0.0 0.00 0.00 0.00 94 1017.8
20260902054230 76 240 0.0 0.0 0.00 0.00 0.00 94 1017.5
20260902053726 76 240 0.0 0.0 0.00 0.00 0.00 94 1017.8
20260902053220 76 238 0.0 0.0 0.00 0.00 0.00 94 1017.7
20260902052719 77 238 0.0 0.0 0.00 0.00 0.00 93 1017.7
20260902052215 77 239 0.0 0.0 0.00 0.00 0.00 93 1018.0
20260902051714 77 239 0.0 0.0 0.00 0.00 0.00 93 1018.0
20260902051209 77 239 0.0 0.0 0.00 0.00 0.00 93 1017.8
20260902050704 77 239 0.0 0.0 0.00 0.00 0.00 93 1017.9
20260902050159 77 239 0.0 0.0 0.00 0.00 0.00 93 1017.8
20260902045653 77 240 0.0 0.0 0.00 0.00 0.00 93 1017.8
20260902045149 77 242 0.0 0.0 0.00 0.00 0.00 92 1017.8
20260902044644 77 242 0.0 0.0 0.00 0.00 0.00 92 1017.7
20260902044140 77 242 0.0 0.0 0.00 0.00 0.00 92 1017.8
20260902043635 78 240 0.0 0.0 0.00 0.00 0.00 91 1017.9
20260902043130 78 240 0.0 0.0 0.00 0.00 0.00 91 1017.5
20260902042629 78 240 0.0 0.0 0.00 0.00 0.00 91 1017.6
20260902042125 78 242 0.0 0.0 0.00 0.00 0.00 91 1017.8
20260902041625 78 242 0.0 0.0 0.00 0.00 0.00 91 1017.6
20260902041120 78 242 0.0 0.0 0.00 0.00 0.00 91 1017.5
20260902040619 78 242 0.0 0.0 0.00 0.00 0.00 91 1017.5
20260902040114 78 242 0.0 0.0 0.00 0.00 0.00 91 1017.5
20260902035613 78 242 0.0 0.0 0.00 0.00 0.00 91 1017.4
20260902035108 78 240 0.0 0.0 0.00 0.00 0.00 91 1017.5
20260902034607 78 243 0.0 0.0 0.00 0.00 0.00 91 1017.5
20260902034107 78 248 0.0 0.0 0.00 0.00 0.00 91 1017.3
20260902033606 78 235 0.0 0.0 0.00 0.00 0.00 91 1017.3
20260902033101 78 231 0.0 0.0 0.00 0.00 0.00 91 1017.2
20260902032600 78 231 0.0 0.0 0.00 0.00 0.00 91 1017.1
20260902032055 78 240 0.0 0.0 0.00 0.00 0.00 91 1017.0
20260902031549 78 240 0.0 0.0 0.00 0.00 0.00 90 1017.0
20260902031046 78 242 0.0 0.0 0.00 0.00 0.00 90 1017.3
20260902030545 78 240 0.0 0.0 0.00 0.00 0.00 90 1017.3
20260902030040 78 235 0.0 0.0 0.00 0.00 0.00 89 1017.1
20260902025540 79 235 0.0 0.0 0.00 0.00 0.00 88 1017.2
20260902025035 79 235 0.0 0.0 0.00 0.00 0.00 88 1017.0
20260902024531 79 235 0.0 0.0 0.00 0.00 0.00 88 1017.1
20260902024030 79 235 0.0 0.0 0.00 0.00 0.00 88 1017.3
20260902023526 79 212 0.0 0.0 0.00 0.00 0.00 88 1017.3
20260902023021 79 213 0.0 0.0 0.00 0.00 0.00 87 1017.2
20260902022515 79 211 0.0 0.0 0.00 0.00 0.00 87 1017.3
20260902022011 79 243 0.0 0.0 0.00 0.00 0.00 87 1017.3
20260902021507 79 243 0.0 0.0 0.00 0.00 0.00 87 1017.3
20260902021002 79 243 0.0 0.0 0.00 0.00 0.00 87 1017.2
20260902020457 80 243 0.0 0.0 0.00 0.00 0.00 86 1017.0
20260902015953 80 243 0.0 0.0 0.00 0.00 0.00 86 1017.2
20260902015448 80 242 0.0 0.0 0.00 0.00 0.00 85 1017.1
20260902014944 80 242 0.0 0.0 0.00 0.00 0.00 85 1016.8
20260902014440 80 243 0.0 0.0 0.00 0.00 0.00 84 1016.9
20260902013939 80 233 0.0 0.0 0.00 0.00 0.00 83 1016.9
20260902013435 81 233 0.0 0.0 0.00 0.00 0.00 83 1016.7
20260902012930 81 233 0.0 0.0 0.00 0.00 0.00 82 1016.7
20260902012426 81 233 0.0 0.0 0.00 0.00 0.00 82 1016.6
20260902011921 81 233 0.0 0.0 0.00 0.00 0.00 81 1016.4
20260902011411 81 233 0.0 0.0 0.00 0.00 0.00 81 1016.4
20260902010910 81 233 0.0 0.0 0.00 0.00 0.00 81 1016.4
20260902010405 82 233 0.0 0.0 0.00 0.00 0.00 79 1016.4
20260902005904 82 233 0.0 0.0 0.00 0.00 0.00 79 1016.4
20260902005359 82 233 0.0 0.0 0.00 0.00 0.00 79 1016.4
20260902004855 82 233 0.0 0.0 0.00 0.00 0.00 77 1016.2
20260902004354 82 233 0.0 0.0 0.00 0.00 0.00 77 1016.4
20260902003849 82 233 0.0 0.0 0.00 0.00 0.00 77 1016.2
20260902003344 83 233 0.0 0.0 0.00 0.00 0.00 77 1016.0
20260902002840 83 233 0.0 0.0 0.00 0.00 0.00 76 1016.1
20260902002339 83 233 0.0 0.0 0.00 0.00 0.00 76 1016.0
20260902001835 83 233 0.0 0.0 0.00 0.00 0.00 76 1016.0
20260902001335 84 233 0.0 0.0 0.00 0.00 0.00 76 1015.9
20260902000831 84 233 0.0 0.0 0.00 0.00 0.00 73 1015.8
20260902000330 84 233 0.0 0.0 0.00 0.00 0.00 73 1016.1
20260901235825 84 231 0.0 0.0 0.00 0.00 0.00 72 1016.0
20260901235325 85 231 0.0 0.0 0.00 0.00 0.00 72 1015.9
20260901234820 85 231 0.0 0.0 0.00 0.00 0.00 72 1015.8
20260901234314 86 231 0.0 0.0 0.00 0.00 0.00 71 1016.0
20260901233810 86 233 0.0 0.0 0.00 0.00 0.00 70 1016.0
20260901233305 86 231 0.0 0.0 0.00 0.00 0.00 69 1015.8